When you browse on this site, cookies collect data to enhance your experience and personalize the content and advertising you see.
Visit our Privacy Policy to learn more. By continuing to use the site, you agree to this use of cookies and data.
  • In Czech Republic
  • List of Countries
  • For 7 days
  • Water Temperature
  • Weather Map
  • Weather Widgets
  • user-avatar
    Login

    Hourly Weather Tucupita

    Today, 20 February, Thursday

    Time Temperature Precipitation Wind Pressure Humidity
    00:00 +24°C° 0 mm 1 mps 759 mmHg 95%
    01:00 +23°C° 0 mm 1 mps 759 mmHg 97%
    02:00 +23°C° 0 mm 1 mps 758 mmHg 98%
    03:00 +23°C° 0 mm 1 mps 758 mmHg 98%
    04:00 +23°C° 0 mm 1 mps 758 mmHg 98%
    05:00 +23°C° 0 mm 1 mps 758 mmHg 98%
    06:00 +24°C° 0 mm 1 mps 758 mmHg 93%
    07:00 +25°C° 0 mm 2 mps 759 mmHg 87%
    08:00 +26°C° 0 mm 2 mps 759 mmHg 82%
    09:00 +28°C° 0 mm 2 mps 759 mmHg 72%
    10:00 +30°C° 0 mm 3 mps 759 mmHg 63%
    11:00 +33°C° 0 mm 3 mps 760 mmHg 53%
    12:00 +33°C° 0 mm 3 mps 759 mmHg 52%
    13:00 +34°C° 0 mm 3 mps 758 mmHg 51%
    14:00 +34°C° 0 mm 3 mps 757 mmHg 50%
    15:00 +33°C° 0 mm 3 mps 757 mmHg 53%
    16:00 +31°C° 0 mm 3 mps 757 mmHg 56%
    17:00 +30°C° 0 mm 3 mps 756 mmHg 60%
    18:00 +28°C° 0 mm 2 mps 757 mmHg 66%
    19:00 +27°C° 0 mm 2 mps 757 mmHg 72%
    20:00 +25°C° 0 mm 2 mps 757 mmHg 79%
    21:00 +24°C° 0 mm 1 mps 758 mmHg 83%
    22:00 +24°C° 0 mm 1 mps 758 mmHg 87%
    23:00 +23°C° 0 mm 1 mps 759 mmHg 91%

    Tomorrow, 21 February, Friday

    Time Temperature Precipitation Wind Pressure Humidity
    00:00 +23°C° 0 mm 1 mps 759 mmHg 92%
    01:00 +23°C° 0 mm 1 mps 759 mmHg 94%
    02:00 +23°C° 0 mm 1 mps 758 mmHg 95%
    09:00 +27°C° 0 mm 1 mps 759 mmHg 72%
    10:00 +30°C° 0 mm 2 mps 760 mmHg 61%
    11:00 +32°C° 0 mm 2 mps 760 mmHg 49%
    12:00 +34°C° 0 mm 2 mps 759 mmHg 46%
    13:00 +35°C° 0 mm 2 mps 758 mmHg 43%
    14:00 +36°C° 0 mm 2 mps 757 mmHg 39%
    15:00 +35°C° 0 mm 2 mps 756 mmHg 44%
    16:00 +34°C° 0 mm 2 mps 756 mmHg 48%
    17:00 +33°C° 0 mm 3 mps 756 mmHg 53%
    18:00 +30°C° 0 mm 3 mps 756 mmHg 60%
    19:00 +28°C° 0 mm 2 mps 757 mmHg 67%
    20:00 +26°C° 0 mm 2 mps 758 mmHg 74%
    21:00 +25°C° 0 mm 2 mps 758 mmHg 79%
    22:00 +24°C° 0 mm 1 mps 758 mmHg 85%
    23:00 +23°C° 0 mm 1 mps 759 mmHg 90%

    Day after tomorrow, 22 February, Saturday

    Time Temperature Precipitation Wind Pressure Humidity
    00:00 +23°C° 0 mm 1 mps 759 mmHg 92%
    01:00 +23°C° 0 mm 1 mps 758 mmHg 94%
    02:00 +22°C° 0 mm 1 mps 758 mmHg 97%
    03:00 +22°C° 0 mm 1 mps 758 mmHg 97%
    04:00 +22°C° 0 mm 1 mps 758 mmHg 97%
    05:00 +22°C° 0 mm 1 mps 758 mmHg 98%
    06:00 +23°C° 0 mm 1 mps 758 mmHg 93%
    07:00 +25°C° 0 mm 1 mps 759 mmHg 89%
    08:00 +26°C° 0 mm 1 mps 760 mmHg 85%
    09:00 +28°C° 0.1 mm 1 mps 760 mmHg 78%
    10:00 +29°C° 0.1 mm 2 mps 760 mmHg 71%
    11:00 +31°C° 0.1 mm 2 mps 760 mmHg 64%
    12:00 +32°C° 0.2 mm 2 mps 759 mmHg 61%
    13:00 +34°C° 0.2 mm 2 mps 758 mmHg 59%
    14:00 +34°C° 0.2 mm 3 mps 757 mmHg 56%
    15:00 +34°C° 0.1 mm 3 mps 757 mmHg 57%
    16:00 +33°C° 0.1 mm 3 mps 756 mmHg 59%
    17:00 +33°C° 0.1 mm 3 mps 756 mmHg 61%
    18:00 +30°C° 0 mm 2 mps 756 mmHg 67%
    19:00 +28°C° 0 mm 2 mps 757 mmHg 74%
    20:00 +27°C° 0 mm 2 mps 757 mmHg 80%
    21:00 +26°C° 0 mm 2 mps 758 mmHg 84%
    22:00 +25°C° 0 mm 2 mps 758 mmHg 87%
    23:00 +24°C° 0 mm 1 mps 759 mmHg 91%

    23 February, Sunday

    Time Temperature Precipitation Wind Pressure Humidity
    00:00 +24°C° 0 mm 1 mps 758 mmHg 93%
    01:00 +23°C° 0 mm 1 mps 758 mmHg 96%
    02:00 +23°C° 0 mm 1 mps 758 mmHg 98%
    03:00 +23°C° 0 mm 1 mps 758 mmHg 98%
    04:00 +23°C° 0 mm 1 mps 758 mmHg 98%
    05:00 +23°C° 0 mm 1 mps 758 mmHg 98%
    06:00 +24°C° 0 mm 1 mps 758 mmHg 95%
    07:00 +25°C° 0 mm 1 mps 759 mmHg 91%
    08:00 +26°C° 0 mm 1 mps 759 mmHg 87%
    09:00 +28°C° 0.1 mm 1 mps 759 mmHg 77%
    10:00 +31°C° 0.1 mm 2 mps 759 mmHg 67%
    11:00 +34°C° 0.1 mm 2 mps 759 mmHg 57%
    12:00 +34°C° 0.2 mm 2 mps 758 mmHg 55%
    13:00 +35°C° 0.2 mm 2 mps 757 mmHg 53%
    14:00 +36°C° 0.2 mm 3 mps 756 mmHg 50%
    15:00 +34°C° 0.1 mm 3 mps 756 mmHg 55%
    16:00 +33°C° 0.1 mm 3 mps 756 mmHg 60%
    17:00 +31°C° 0.1 mm 3 mps 756 mmHg 65%
    18:00 +30°C° 0 mm 3 mps 756 mmHg 71%
    19:00 +28°C° 0 mm 2 mps 757 mmHg 77%
    20:00 +27°C° 0 mm 2 mps 757 mmHg 83%
    21:00 +26°C° 0 mm 2 mps 758 mmHg 86%
    22:00 +26°C° 0 mm 2 mps 758 mmHg 89%
    23:00 +25°C° 0 mm 2 mps 759 mmHg 92%

    24 February, Monday

    Time Temperature Precipitation Wind Pressure Humidity
    00:00 +25°C° 0 mm 1 mps 758 mmHg 93%
    01:00 +24°C° 0 mm 1 mps 758 mmHg 95%
    02:00 +24°C° 0 mm 1 mps 758 mmHg 97%
    03:00 +24°C° 0 mm 1 mps 758 mmHg 97%
    04:00 +24°C° 0 mm 1 mps 758 mmHg 97%
    05:00 +22°C° 0 mm 0 mps 758 mmHg 97%
    06:00 +25°C° 0.1 mm 1 mps 758 mmHg 95%
    07:00 +26°C° 0.1 mm 1 mps 759 mmHg 92%
    08:00 +26°C° 0.1 mm 2 mps 759 mmHg 90%
    09:00 +28°C° 0.1 mm 2 mps 759 mmHg 80%
    10:00 +30°C° 0.1 mm 2 mps 759 mmHg 71%
    11:00 +33°C° 0.1 mm 3 mps 759 mmHg 61%
    12:00 +33°C° 0.2 mm 3 mps 759 mmHg 59%
    13:00 +34°C° 0.2 mm 3 mps 758 mmHg 56%
    14:00 +34°C° 0.2 mm 3 mps 757 mmHg 54%
    15:00 +34°C° 0.1 mm 3 mps 757 mmHg 57%
    16:00 +33°C° 0.1 mm 3 mps 756 mmHg 60%
    17:00 +31°C° 0.1 mm 3 mps 756 mmHg 63%
    18:00 +30°C° 0.1 mm 3 mps 757 mmHg 69%
    19:00 +28°C° 0.1 mm 2 mps 757 mmHg 75%
    20:00 +26°C° 0.1 mm 2 mps 758 mmHg 82%
    21:00 +26°C° 0 mm 2 mps 758 mmHg 84%
    22:00 +25°C° 0 mm 2 mps 759 mmHg 86%
    23:00 +25°C° 0 mm 1 mps 759 mmHg 88%

    25 February, Tuesday

    Time Temperature Precipitation Wind Pressure Humidity
    00:00 +24°C° 0 mm 1 mps 759 mmHg 90%
    01:00 +24°C° 0 mm 1 mps 759 mmHg 92%
    02:00 +23°C° 0 mm 1 mps 758 mmHg 94%
    03:00 +23°C° 0 mm 1 mps 758 mmHg 95%
    04:00 +23°C° 0 mm 1 mps 758 mmHg 97%
    05:00 +23°C° 0 mm 1 mps 758 mmHg 98%
    06:00 +24°C° 0 mm 1 mps 759 mmHg 93%
    07:00 +25°C° 0 mm 1 mps 759 mmHg 88%
    08:00 +26°C° 0 mm 1 mps 760 mmHg 83%
    09:00 +27°C° 0 mm 2 mps 760 mmHg 76%
    10:00 +29°C° 0 mm 2 mps 760 mmHg 68%
    11:00 +31°C° 0 mm 3 mps 760 mmHg 60%
    12:00 +33°C° 0 mm 3 mps 759 mmHg 56%
    13:00 +34°C° 0 mm 3 mps 758 mmHg 51%
    14:00 +35°C° 0 mm 3 mps 757 mmHg 47%
    15:00 +35°C° 0 mm 3 mps 757 mmHg 48%
    16:00 +34°C° 0 mm 3 mps 756 mmHg 49%
    17:00 +33°C° 0 mm 3 mps 756 mmHg 50%
    18:00 +30°C° 0 mm 3 mps 757 mmHg 59%
    19:00 +28°C° 0 mm 3 mps 757 mmHg 68%
    20:00 +26°C° 0 mm 2 mps 757 mmHg 77%
    21:00 +25°C° 0 mm 2 mps 758 mmHg 81%
    22:00 +25°C° 0 mm 2 mps 758 mmHg 86%
    23:00 +24°C° 0 mm 2 mps 759 mmHg 90%
    Show more